Hulianwang W. Digui 03-09

operational
NORAD ID: 63695 Int'l Des: 2025-086 Owner: ZXW Country: CN Constellation: xingwang
LEOCIRCULARPOLARONEWEB_TYPE

关于 Hulianwang W. Digui 03-09

正在加载描述...

实时位置

正在加载3D地球...

即将过境

高度历史

Altitude vs Time

uPlot chart will show altitude changes over time

两行轨道根数

1 63695U 25086J 25340.59625097 .00000106 00000-0 21353-3 0 9991
2 63695 86.5022 17.8709 0002052 88.5699 271.5670 13.24413536 29360
Epoch: Dec 6, 2025 • Age: 16 hours

当前状态

高度 1198.1 km
速度 7.25 km/s
星下点 -84.18°S, 65.73°E
发射日期 Apr 28, 2025
运行时间 0.6 years
类型 other

技术详情

分类 Payload
质量 800.00 kg
干质量 800.00 kg
总质量 800.00 kg
长度 3.00 m
直径 1.00 m
跨度 10.00 m
形状 Box + 2 Pan
制造商 CAST
平台类型 Guowang C
阶段状态 In Orbit
所有者/国家 ZXW/CN

大型星座

Loading constellations...